Regional Weather Roundup
Issued by NWS Portland, ME

Home | Current Version | Previous Version | Text Only | Print | Product List | Glossary On
Versions: 1 2 3 4 5 6 7 8 9 10 11 12 13 14 15 16 17 18 19 20 21 22 23 24 25 26 27 28 29 30 31 32 33 34 35 36 37 38 39 40 41 42 43 44 45 46 47 48 49 50
000
ASUS41 KGYX 010910
RWRGYX
WEATHER ROUNDUP FOR MAINE AND NEW HAMPSHIRE
NATIONAL WEATHER SERVICE GRAY ME
500 AM EDT WED OCT 01 2014

MEZ002-005-006-010-012-015-018-020-021-024-026-027-029-011000-
MAINE

CITY           SKY/WX    TMP DP  RH WIND       PRES   REMARKS
PORTLAND       CLOUDY    57  51  80 N8        30.06S
SANFORD        CLOUDY    55  48  76 N9        30.06R
BAR HARBOR     CLOUDY    55  54  94 N7        30.07S
WISCASSET      CLOUDY    56  52  86 VRB3      30.08R
ROCKLAND       CLOUDY    55  54  94 NE7       30.06R
FRYEBURG       CLOUDY    57  53  86 N3        30.08S
LEWISTONAUBURN CLOUDY    54  48  82 N7        30.07S
AUGUSTA        CLOUDY    54  50  86 N10       30.09R
WATERVILLE     MOCLDY    54  46  76 N9        30.04R
BANGOR         MOCLDY    52  49  89 N10       30.09S
GREENVILLE       N/A     52  50  93 NE5       30.09R
MILLINOCKET    CLOUDY    51  47  86 N5        30.14S
HOULTON        CLOUDY    49  47  93 N5        30.13R FOG
PRESQUE ISLE   CLOUDY    48  43  81 N8        30.14S
FRENCHVILLE    FOG       41  40  96 N8        30.16R VSB 3/4
CARIBOU        CLOUDY    47  45  93 N7        30.14S FOG
$$

NHZ002-005-008-009-011-012-014-011000-
NEW HAMPSHIRE

CITY           SKY/WX    TMP DP  RH WIND       PRES   REMARKS
PORTSMOUTH     CLOUDY    56  54  90 N6        30.03S
ROCHESTER      CLOUDY    57  52  83 N6        30.04S
NASHUA         LGT RAIN  57  56  97 CALM      30.05S
MANCHESTER     CLOUDY    57  53  86 N3        30.03S
CONCORD        CLOUDY    56  54  93 CALM      30.05S
LACONIA        CLOUDY    57  52  82 E12       30.04F
PLYMOUTH       CLOUDY    56  56 100 CALM      30.06S
BERLIN         CLOUDY    53  52  96 CALM      30.09S
WHITEFIELD     CLOUDY    53  50  89 CALM      30.08S
JAFFREY        CLOUDY    55  53  93 VRB3      30.06R
LEBANON        CLOUDY    58  52  80 NE3       30.05F
MT WASHINGTON  CLOUDY    43  37  81 NE14        N/A
$$

VTZ005-007-008-011000-
VERMONT

CITY           SKY/WX    TMP DP  RH WIND       PRES   REMARKS
ST JOHNSBURY     N/A     55  54  96 MISG      30.06S
MONTPELIER     CLOUDY    54  53  97 CALM      30.10S
BURLINGTON     CLOUDY    53  52  96 N5        30.08R FOG
$$

MAZ007-012-024-CTZ003-RIZ002-NYZ038-NYZ072-011000-
SOUTHERN NEW ENGLAND AND NY

CITY           SKY/WX    TMP DP  RH WIND       PRES   REMARKS
BOSTON         CLOUDY    57  55  93 N14       30.02S
WORCESTER      CLOUDY    54  53  97 NE9       30.03S FOG
NANTUCKET      CLOUDY    63  61  93 NE14      29.94S
PROVIDENCE     LGT RAIN  58  56  93 N9        30.00S
HARTFORD       LGT RAIN  59  56  89 N7        30.01S
ALBANY         CLOUDY    61  56  83 CALM      30.03S
NEW YORK CITY  CLOUDY    62  57  83 N8        29.98S
$$

ANZ081-ANZ082-ANZ150-NHZ014-MEZ023>029-011000-
COASTAL MARINE OBSERVATIONS

STATION/POSITION TIME  TEMP    WIND        PRES    WAVE
                       AIR SEA DIR/SP/G            HT/PER
                 (UTC) (F)     (DEG/KT/KT) (MB)    (FT/S)
MATINICUS ROCK   0900           50/ 17/ 19 1016.9S
PORTLAND WX BUOY 0850   57 57   30/ 14/ 16 1016.9F   2/ 6
WELLS            0800   57 57   10/  6/  8 1016.4F
ISLE OF SHOALS   0900   57      40/ 20/ 22 1016.3R
JEFFREYS LEDGE   0821      58                N/A     5/ 6
CASHES LEDGE BUO 0850   56 59              1015.5S   4/ 5
$$

.............KEY..............
   WCI - WIND CHILL
   TC  - TEMPERATURE IN CELSIUS
   VSB - VISIBILITY IN MILES
   HX  - HEAT INDEX
   FAIR- INDICATES FEW OR NO CLOUDS BELOW 12,000 FT, WITH NO
         SIGNIFICANT WEATHER AND/OR OBSTRUCTIONS TO VISIBILITY.




USA.gov is the U.S. government's official web portal to all federal, state and local government web resources and services.